sat.trackr.live / text

‹ back to catalog

STARLINK-36487

NORAD 67416 · 2026-005N

PAYLOAD ACTIVE UNKNOWN

§ Identity

Operator
Country
US
Launch date
2026-01-12
Launch site
AFETR
Launch vehicle
Mass (kg)
RCS (m²)

Purposes: comms

External: N2YO · Heavens-Above · Gunter

§ Orbital elements

Epoch: 2026-05-25T03:04:41.649312Z

Period
94.27 min
Inclination
43.0000°
Eccentricity
0.0001253
Mean motion
15.27594136 rev/d
Perigee alt
482.1 km
Apogee alt
483.9 km
Semi-major
6,861.1 km
B*
8.2192e-4
RAAN
166.5703°
Arg perigee
261.5738°
Mean anomaly
98.4971°
Rev number
2,038

§ Raw data

STARLINK-364871 67416U 26005N   26145.12825983  .00022434  00000+0  82192-3 0  99922 67416  43.0000 166.5703 0001253 261.5738  98.4971 15.27594136 20388

JSON: /api/v1/satellites/67416 · /tle

For live sub-satellite position, see the globe view (requires WebGL).

§ Visibility from observer

Set your observer location to see the next 7 days of passes ≥ 10°. The values pass through the URL so the page stays shareable.

No JS? Fill the form by hand. The geolocation button needs JavaScript.